This is the latest recevied weather packets stored in our database for station/object K4WCH. If no packets are shown the sender has not sent any weather packets the latest 10 day(s).
| Time | Temp. | Humidity | Pressure | Rain* | Wind** | Luminosity | Snow |
|---|---|---|---|---|---|---|---|
| 1788396908 | 26.67° C | 89% | 1015.2 hPa | 0 mm | - | 0 W/m² | - |
| 1788396604 | 26.67° C | 89% | 1015.2 hPa | 0 mm | - | 0 W/m² | - |
| 1788396304 | 26.67° C | 89% | 1014.9 hPa | 0 mm | - | 0 W/m² | - |
| 1788395999 | 26.67° C | 89% | 1015 hPa | 0 mm | - | 0 W/m² | - |
| 1788395694 | 26.67° C | 88% | 1015 hPa | 0 mm | - | 0 W/m² | - |
| 1788395390 | 27.22° C | 89% | 1015.1 hPa | 0 mm | - | 0 W/m² | - |
| 1788395089 | 27.22° C | 88% | 1015.2 hPa | 0 mm | - | 0 W/m² | - |
| 1788394789 | 27.22° C | 88% | 1015.1 hPa | 0 mm | - | 0 W/m² | - |
| 1788394506 | 27.22° C | 87% | 1014.9 hPa | 0 mm | - | 0 W/m² | - |
| 1788394184 | 27.22° C | 87% | 1015 hPa | 0 mm | - | 0 W/m² | - |
| 1788393879 | 27.78° C | 87% | 1015 hPa | 0 mm | - | 0 W/m² | - |
| 1788393577 | 27.78° C | 86% | 1014.8 hPa | 0 mm | - | 0 W/m² | - |
| 1788393273 | 27.78° C | 86% | 1014.7 hPa | 0 mm | - | 0 W/m² | - |
| 1788392972 | 27.78° C | 86% | 1014.7 hPa | 0 mm | - | 1 W/m² | - |
| 1788392668 | 27.78° C | 86% | 1014.6 hPa | 0 mm | - | 2 W/m² | - |
| 1788392366 | 27.78° C | 85% | 1014.5 hPa | 0 mm | - | 3 W/m² | - |
| 1788392061 | 28.33° C | 85% | 1014.7 hPa | 0 mm | - | 5 W/m² | - |
| 1788391760 | 28.33° C | 84% | 1014.5 hPa | 0 mm | - | 8 W/m² | - |
| 1788391455 | 28.33° C | 84% | 1014.8 hPa | 0 mm | - | 10 W/m² | - |
| 1788391154 | 28.33° C | 83% | 1014.3 hPa | 0 mm | - | 11 W/m² | - |
| 1788390850 | 28.89° C | 82% | 1014.4 hPa | 0 mm | - | 19 W/m² | - |
| 1788390545 | 28.89° C | 82% | 1014.3 hPa | 0 mm | - | 19 W/m² | - |
| 1788390244 | 28.89° C | 82% | 1014.3 hPa | 0 mm | - | 22 W/m² | - |
| 1788389944 | 28.89° C | 82% | 1014.3 hPa | 0 mm | - | 29 W/m² | - |
| 1788389639 | 28.89° C | 81% | 1014.2 hPa | 0 mm | - | 41 W/m² | - |
* Rain latest hour (hover to see other rain measurements)
** Current wind speed in m/s (hover to see current wind gust speed)